RH
89 94 99 98 98 100 100 100 99 100 97 86 72 62 55 38 30 29 30 32 40 43 47 51 39 38 41 28 24 22 24 20 19 22 22 23 22 22 20 18 18 17 16 15 15 14 14
100 99 97 100 100 100 100 100 100 89 86 72 69 61 41 32 26 29 38 50 41 46 54 46 41 49 50 29 28 29 28 26 23 18 18 20 21 20 19 18 18 18 16 17 17 16 16
100 99 100 93 100 100 100 100 100 100 94 76 64 50 34 30 41 44 47 54 44 54 53 47 51 62 43 32 34 34 32 32 30 27 21 20 23 25 24 23 21 19 20 19 18 15 14
100 100 100 100 100 100 100 100 100 100 95 76 56 41 36 44 49 52 55 51 64 58 50 51 59 67 48 39 38 36 38 39 36 32 31 27 26 26 24 23 22 23 21 21 23 24 19
98 100 100 100 100 100 100 100 100 100 96 72 50 51 47 58 61 66 66 73 69 56 59 74 82 61 53 45 44 44 41 41 33 36 33 31 29 29 29 24 22 24 24 25 23 27 29
79 66 78 98 100 100 100 100 100 100 92 66 53 62 61 59 58 71 85 86 73 76 83 94 92 74 62 54 54 50 47 37 34 34 34 32 31 33 34 34 30 27 23 24 29 42 41
100 100 82 61 84 100 100 100 100 100 90 57 62 68 62 58 63 72 79 81 82 89 99 100 98 73 70 67 59 50 47 46 42 38 35 34 34 35 38 39 33 28 23 22 29 38 43
100 100 100 100 93 100 100 100 100 99 78 58 70 69 61 62 74 85 88 94 100 100 100 96 86 81 67 61 55 53 50 50 46 47 37 33 34 36 38 38 36 32 31 32 32 35 36
99 100 100 100 100 100 100 100 100 99 72 61 74 67 64 68 76 82 98 100 100 95 92 99 96 90 76 67 60 55 54 50 41 37 36 32 32 37 42 45 43 42 42 51 46 49 47
100 100 99 100 100 100 100 100 100 100 75 68 72 66 58 62 80 92 100 100 98 82 91 100 98 98 89 62 59 58 57 51 47 40 36 34 34 35 31 32 45 52 64 61 50 54 40
100 100 100 100 99 100 100 100 100 97 74 78 77 68 65 64 86 100 100 96 86 98 84 83 86 74 57 54 58 54 52 48 47 39 36 36 35 34 28 28 40 45 47 46 46 32 32
83 98 100 100 95 100 100 100 100 97 81 74 70 74 83 92 100 100 100 100 97 91 90 86 68 50 46 54 54 55 52 45 38 39 32 34 32 32 28 32 37 41 37 29 28 31 31
100 90 87 100 100 100 98 99 100 99 95 90 87 95 100 100 100 100 100 95 100 99 82 68 61 66 68 60 55 54 47 50 50 39 33 27 27 27 31 32 37 33 28 36 32 41 43
93 100 100 93 95 100 100 100 100 100 100 100 100 100 100 100 100 100 99 96 89 82 69 61 61 57 56 54 44 43 43 51 49 39 27 24 27 32 32 40 36 27 44 47 53 39 36
100 82 89 99 99 100 100 100 100 100 100 100 98 98 100 100 100 100 98 89 81 79 73 74 62 54 56 49 46 49 57 50 47 29 26 29 30 29 39 38 35 35 42 50 46 37 28
100 100 90 81 92 99 100 95 94 89 87 85 87 92 93 96 98 95 99 99 78 66 68 69 56 54 53 50 47 50 45 36 27 28 36 36 31 34 32 32 35 36 43 40 35 31 24
100 100 100 88 86 90 82 91 91 83 70 73 77 98 100 100 96 93 87 75 75 73 72 57 58 61 60 49 56 48 42 27 24 26 27 30 40 34 33 31 37 40 34 33 30 19 9
100 100 100 100 100 100 91 62 55 80 75 59 63 69 76 83 82 75 68 64 60 60 61 63 60 59 66 55 49 41 40 26 33 32 38 69 54 39 30 36 42 31 31 30 18 9 6
100 100 100 100 100 100 94 66 68 58 63 74 74 72 60 52 54 57 57 58 63 65 66 64 51 57 64 59 43 35 26 30 38 42 84 78 44 33 41 39 32 28 28 16 9 6 6
100 100 100 100 100 100 100 91 61 55 56 48 56 67 67 56 49 49 61 59 61 63 70 63 51 58 50 44 41 26 23 35 40 88 85 48 33 47 36 31 27 26 14 9 6 6 5
100 100 100 100 100 100 100 95 63 43 51 54 50 45 54 54 56 57 55 58 72 60 50 53 52 51 46 38 32 24 35 44 72 68 43 51 48 35 29 27 22 13 8 7 6 6 6
100 100 100 100 100 100 100 100 100 67 54 60 57 76 75 67 60 48 51 65 70 54 49 50 40 39 36 32 25 37 63 69 52 46 56 50 35 30 27 20 13 7 7 7 6 6 7
100 100 100 100 100 100 100 98 97 94 86 97 98 83 60 54 60 63 64 61 52 53 45 45 42 32 28 34 41 82 64 52 52 55 47 37 30 29 17 12 7 6 8 8 7 6 6
100 100 100 100 100 100 100 100 100 100 100 98 98 82 66 68 66 54 47 58 59 46 46 41 35 41 48 57 66 57 52 64 61 48 38 33 31 18 11 7 6 7 8 8 7 7 7
100 100 100 100 100 100 100 100 100 100 100 100 100 82 75 79 65 62 61 55 50 53 54 56 69 80 67 52 47 64 62 56 47 36 37 31 16 11 7 6 7 8 7 7 7 7 7
100 100 100 100 100 100 100 100 100 100 100 100 86 74 79 75 76 77 63 57 55 64 77 93 81 47 50 49 80 61 46 38 36 37 27 16 10 7 7 7 7 8 7 7 7 7 6
100 100 100 100 100 100 100 100 100 100 100 100 90 88 84 77 76 70 69 63 65 78 63 52 53 54 72 71 52 43 40 41 34 20 14 9 7 8 8 7 8 8 7 6 6 5 5
100 100 100 100 100 100 100 100 100 100 100 96 92 93 86 74 70 66 57 58 62 56 59 58 52 66 57 57 44 45 40 31 18 12 8 7 8 8 8 7 7 7 6 6 6 6 6
100 100 100 100 100 100 100 100 92 90 96 89 96 94 88 87 68 57 66 73 61 57 54 58 56 52 54 48 47 32 28 14 10 8 8 8 7 8 7 7 6 6 6 6 6 6 6
Wind_Speed
39 36 34 32 33 34 32 31 30 29 30 31 32 31 34 35 36 36 36 34 34 34 38 40 41 39 39 38 38 36 39 39 42 45 48 50 52 54 55 53 52 50 45 44 41 40 42
41 39 40 38 37 37 34 31 31 31 32 34 33 35 35 37 37 37 37 36 36 37 40 41 42 42 42 41 41 42 43 43 45 47 50 51 54 54 54 55 57 56 56 50 49 46 44
47 46 44 42 41 40 40 40 38 35 36 34 35 36 37 37 34 37 38 38 41 40 41 42 44 44 44 44 43 46 44 46 49 51 51 49 49 50 54 55 55 55 55 54 56 55 53
48 49 51 50 48 47 45 45 42 39 36 35 37 37 37 36 37 38 39 39 41 42 44 44 45 46 46 45 46 48 50 52 56 52 51 53 54 55 56 53 51 49 49 54 56 59 60
46 49 54 55 53 50 49 43 42 40 38 39 38 38 39 37 38 39 39 41 43 44 45 46 47 48 50 49 49 52 55 59 56 52 54 55 57 57 59 57 55 55 55 55 60 64 69
30 48 51 49 49 53 52 45 42 42 41 40 40 40 41 40 41 41 42 44 45 46 48 49 50 51 53 53 55 59 58 58 56 57 57 61 61 61 62 66 64 63 62 62 64 69 74
28 28 34 46 49 45 46 46 45 43 42 42 43 43 43 44 43 44 46 46 49 48 50 53 54 54 55 56 59 60 62 62 62 61 62 65 70 72 70 72 72 72 72 72 75 78 79
30 31 31 32 38 44 45 45 44 44 45 46 46 46 46 47 46 47 48 50 51 51 53 55 55 56 59 60 64 65 64 66 69 68 66 67 71 74 76 79 80 80 82 83 84 86 87
33 33 33 35 36 39 45 47 47 48 49 48 49 49 49 50 49 50 53 54 55 55 55 57 59 60 61 65 68 67 68 69 71 74 74 74 72 75 79 82 84 86 88 91 93 96 98
37 37 37 38 39 41 43 46 46 48 50 50 51 52 53 53 54 56 56 57 58 58 56 60 62 65 69 70 70 71 75 76 75 75 78 79 81 84 87 90 92 91 95 98 100 105 105
40 41 41 42 42 42 44 46 49 51 53 53 54 55 56 57 58 60 60 60 60 61 62 63 66 69 72 72 73 74 77 78 81 80 84 88 91 94 95 97 98 98 101 105 108 112 116
51 44 45 46 46 44 45 46 49 52 55 56 57 57 58 59 60 61 62 62 64 66 66 68 70 74 71 73 77 80 81 81 85 87 91 98 99 96 98 102 103 106 109 113 118 122 124
51 54 51 50 49 48 50 51 52 52 54 57 58 59 60 61 62 62 62 64 66 69 70 72 75 74 74 79 83 85 84 87 93 94 99 99 100 98 104 106 107 112 119 125 130 132 137
57 52 55 56 54 53 54 54 55 57 57 57 58 58 60 61 63 64 65 67 69 73 75 76 78 79 80 83 85 88 88 94 96 103 104 102 99 104 106 109 113 120 126 133 143 144 147
67 64 60 57 58 60 58 59 58 59 60 60 60 59 61 62 65 67 68 71 74 77 79 81 82 86 86 87 90 91 93 99 103 105 105 110 105 109 113 117 125 131 136 140 150 155 158
67 70 69 65 64 65 63 64 64 64 63 62 62 61 62 64 67 69 72 76 80 83 84 85 88 91 92 89 91 97 100 106 109 106 110 114 116 114 120 127 134 141 144 150 156 166 160
70 69 72 73 70 71 71 68 66 66 65 65 66 64 66 69 71 74 78 81 84 87 89 91 94 97 99 98 98 104 107 109 113 114 124 126 124 123 130 137 142 148 154 158 165 156 141
71 72 71 72 75 75 75 75 72 68 68 70 71 72 74 75 77 81 83 86 89 91 94 94 95 99 98 97 105 111 110 117 120 128 128 130 132 135 141 145 149 158 161 168 154 137 125
73 77 74 75 77 81 82 79 76 74 75 74 76 78 80 82 83 85 87 88 91 93 93 95 100 102 105 106 116 114 116 122 128 131 133 136 143 148 151 150 157 161 168 150 134 122 111
69 77 78 80 81 82 83 82 80 77 76 78 80 81 83 84 87 88 88 88 92 94 94 102 105 109 110 111 118 118 124 128 131 131 139 150 150 156 154 160 165 164 147 133 121 111 102
72 74 79 78 80 83 85 85 81 79 83 84 84 83 85 85 87 88 89 91 98 101 100 105 109 111 113 118 119 124 130 128 134 139 148 152 155 159 162 167 163 145 128 119 111 101 93
75 74 78 84 81 78 78 81 85 85 82 86 86 90 90 89 92 95 96 99 104 103 105 108 112 116 119 122 127 132 134 137 140 144 149 155 158 164 168 161 146 127 114 109 101 92 87
60 78 78 76 83 88 86 91 91 90 89 90 90 94 94 92 96 100 100 105 105 108 110 114 119 120 125 129 136 135 140 142 148 148 156 158 165 171 156 144 125 110 107 101 94 88 81
80 73 73 78 79 82 87 90 89 94 94 95 97 100 98 97 101 104 104 107 112 115 117 121 127 128 133 137 135 142 146 145 148 153 160 165 171 159 140 124 109 101 97 91 88 82 74
76 75 70 76 79 81 81 84 86 88 93 98 102 104 102 103 107 108 110 113 115 118 122 129 131 136 137 138 149 143 147 150 152 158 166 170 155 138 122 109 100 93 89 83 78 71 68
71 81 74 77 80 83 84 83 90 93 96 99 105 107 108 110 111 114 116 118 121 123 127 133 137 140 143 148 144 150 153 152 158 165 164 150 135 117 109 100 92 87 83 76 70 65 63
64 70 78 76 82 89 89 94 98 98 103 105 108 109 111 114 117 118 118 122 125 130 135 136 141 146 140 146 151 150 153 160 165 156 142 126 115 107 98 91 84 81 75 70 64 60 58
66 66 70 71 70 77 83 89 95 102 105 110 111 115 118 120 118 120 123 128 134 137 139 142 143 141 142 144 150 157 160 164 151 136 120 110 103 95 88 83 77 72 68 65 61 59 57
64 67 61 66 75 82 89 100 110 111 112 115 116 117 120 123 125 126 129 134 133 136 138 136 138 141 146 151 157 161 160 142 128 116 108 98 90 85 81 75 70 66 63 61 58 56 54
Wind_Direction
230 228 230 231 234 235 240 248 249 251 255 261 266 269 266 250 246 249 255 259 266 275 284 291 294 296 299 305 304 306 310 305 295 290 290 291 289 290 292 292 291 287 294 293 295 291 281
235 235 235 235 232 235 243 244 251 255 261 264 264 261 252 247 250 253 259 265 270 280 284 287 292 294 299 302 305 305 308 306 302 297 293 290 287 292 291 290 289 286 288 291 293 295 294
235 238 237 237 237 242 247 251 256 260 261 257 258 252 248 251 253 259 262 269 272 279 284 289 290 293 298 301 304 304 305 303 299 295 292 288 289 293 290 287 286 285 288 290 292 293 296
232 235 237 240 241 243 248 254 256 260 260 252 251 248 249 253 258 261 266 271 274 277 283 288 289 292 292 298 303 302 301 302 299 294 292 287 289 290 295 290 288 289 289 290 291 294 297
237 236 239 241 244 247 247 250 255 256 255 247 244 247 251 257 260 264 269 272 275 280 284 288 289 292 295 296 300 300 297 301 299 290 293 296 297 296 296 297 297 291 290 291 296 297 298
248 241 241 241 243 245 247 249 251 257 250 245 244 248 253 258 262 267 270 274 277 282 285 288 289 293 295 296 299 299 297 302 302 295 292 295 297 297 297 298 297 296 295 295 296 297 299
254 254 249 244 243 245 246 247 247 248 244 242 244 249 255 259 262 268 271 275 277 281 284 288 289 291 292 294 295 297 297 299 299 301 298 297 298 299 297 297 297 295 297 298 300 299 298
252 253 254 251 245 242 244 244 245 244 241 242 245 251 256 261 264 269 272 275 277 280 284 289 287 289 293 294 293 296 295 298 299 297 297 298 300 300 299 298 298 296 297 298 298 297 298
252 251 251 254 250 248 245 245 246 244 242 244 247 253 259 262 266 270 271 274 277 280 283 287 286 287 289 293 294 295 296 298 300 299 295 296 300 301 301 300 300 299 299 299 298 299 301
255 256 251 250 249 249 248 249 250 247 247 250 252 256 261 264 267 269 271 273 277 280 283 284 286 287 289 292 292 296 295 296 298 303 298 294 296 299 302 303 302 302 301 301 301 301 301
242 249 251 251 249 249 250 250 251 248 249 251 256 261 263 266 269 270 273 275 279 282 280 282 284 286 288 290 294 296 299 295 298 299 302 301 298 299 299 302 302 302 302 302 302 301 299
250 242 246 250 252 252 251 253 253 251 252 255 260 262 266 267 270 272 274 275 278 280 282 284 284 286 291 292 294 297 297 295 296 297 300 301 303 300 301 302 303 303 304 304 301 301 301
251 251 249 250 251 255 256 256 256 256 256 258 261 264 266 268 270 271 272 275 278 280 281 283 288 289 291 292 293 296 296 297 300 300 300 300 302 302 303 303 304 306 308 304 304 303 302
249 248 251 252 254 254 255 258 259 259 258 258 262 266 267 269 271 272 276 278 279 280 283 286 287 288 291 293 295 295 295 300 300 301 301 302 302 301 303 304 306 307 303 304 303 304 303
253 250 249 251 253 256 257 257 257 258 259 261 263 266 268 270 273 274 277 278 280 281 285 286 288 291 293 294 294 295 297 301 300 302 300 304 305 302 304 307 307 306 306 304 303 304 304
252 255 255 253 255 255 256 257 257 259 261 261 262 265 267 270 274 276 277 278 280 284 285 287 290 293 294 293 294 297 300 300 302 301 303 304 305 306 308 307 306 306 306 305 305 305 304
248 252 257 257 257 257 257 258 260 264 264 263 263 264 268 269 271 273 275 279 283 285 286 290 292 293 293 293 295 300 301 302 303 302 303 304 305 308 307 307 306 306 306 307 306 306 301
247 250 252 255 257 259 260 261 261 264 267 267 265 266 268 271 273 275 279 282 285 287 288 291 293 295 294 292 298 300 301 303 304 304 305 305 307 307 307 308 308 307 308 308 307 303 300
241 247 249 252 257 258 260 260 262 264 265 266 268 270 272 274 276 279 281 283 286 286 287 291 294 296 294 294 297 299 302 303 303 305 305 305 307 307 309 309 309 309 309 308 305 302 300
237 244 248 250 253 256 258 261 262 264 268 268 268 270 272 275 277 281 282 285 289 289 289 293 294 295 295 296 298 301 303 302 304 306 305 306 307 309 310 311 310 310 309 306 304 301 301
231 240 242 246 252 259 263 265 265 268 269 270 272 274 276 275 278 281 282 288 292 291 292 293 294 296 297 298 299 301 302 304 308 307 307 307 309 309 310 311 311 309 308 305 302 303 301
227 238 244 249 248 254 260 260 264 268 270 270 273 277 278 278 281 285 287 287 292 292 294 294 295 296 297 298 300 302 306 307 307 306 307 308 310 310 312 311 309 308 308 304 304 302 300
232 235 242 243 250 254 257 261 264 267 268 269 270 276 279 280 283 286 287 289 291 292 294 294 295 297 298 300 303 306 306 306 306 308 308 310 310 311 312 309 307 309 306 304 302 301 298
227 234 243 245 248 254 259 262 265 266 268 269 272 276 279 281 285 287 288 290 291 293 294 296 297 299 299 302 304 304 305 306 307 309 309 309 311 311 310 308 309 307 304 302 301 300 299
229 233 245 244 246 252 257 261 265 269 270 272 274 278 280 281 284 286 288 291 292 294 295 298 298 299 301 303 303 304 304 307 308 309 309 310 310 309 308 308 308 306 302 300 300 299 296
230 238 242 247 250 253 257 260 262 267 270 272 275 277 279 282 283 286 289 291 292 293 295 297 298 299 301 303 303 305 307 308 308 309 309 309 309 308 307 308 307 303 301 300 299 297 295
236 243 246 251 253 255 261 263 264 266 269 272 276 278 280 283 285 288 289 291 292 292 295 298 299 301 302 302 304 305 307 307 309 309 308 308 308 308 307 305 304 302 301 300 300 297 296
239 244 251 256 259 258 260 262 264 266 269 272 276 279 283 285 287 288 290 290 292 296 297 298 300 300 302 303 305 306 307 309 309 309 308 308 308 306 305 304 303 302 301 300 299 298 297
245 248 253 255 261 264 265 265 266 268 271 274 277 280 282 285 286 288 290 292 294 297 298 299 300 301 303 304 306 307 308 308 308 308 308 308 306 305 304 303 303 302 302 301 300 300 298